[[{"header":{"parameterUnit":"m.s-1","parameterCategory":1,"la1":30.2991,"la2":30.254,"lo1":-89.0895,"lo2":-89.0444,"dy":0.0017,"dx":0.0017,"nx":28,"ny":28,"refTime":"2024-04-21T09:00:00:Z","depth":0,"parameterNumber":2,"parameterNumberName":"U-component_of_WINDS"},"data":[0,0,0,0,0,0,0,0,0,0,0,0,0,0,0,0,0,0,0,0,0,0,0,0,0,0,0,0,0,0,0,0,0,0,0,0,0,0,0,0,0,0,0,0,0,0,0,0,0,0,0,0,0,0,0,0,0,0,-3.052,-3.052,0,-3.0528,-3.0528,-3.0528,-3.0464,-3.0462,-3.046,-3.0458,-3.0467,-3.0468,-3.047,0,0,0,0,0,0,0,0,0,0,0,0,0,-3.0449,-3.045,-3.052,-3.052,-3.052,-3.0528,-3.0528,-3.0528,-3.0464,-3.0462,-3.046,-3.0458,-3.0466,-3.0468,-3.047,0,0,0,0,0,0,0,0,0,0,0,0,0,-3.047,-3.0451,-3.052,-3.0489,-3.0486,-3.0528,-3.0528,-3.0528,-3.0464,-3.0462,-3.0459,-3.0457,-3.0465,-3.0468,-3.0471,-3.0542,0,0,-3.0479,-3.0481,0,0,0,0,0,0,0,0,-3.0469,-3.0473,-3.0493,-3.0491,-3.0488,-3.0492,-3.0506,-3.0533,-3.0465,-3.0473,-3.0458,-3.0455,-3.0477,-3.0479,-3.0486,-3.0542,-3.0543,-3.048,-3.0481,-3.0483,-3.0483,0,0,0,0,0,0,0,-3.0468,-3.0472,-3.0523,-3.0494,-3.0491,-3.0475,-3.0475,-3.051,-3.049,-3.0472,-3.0467,-3.0469,-3.0475,-3.0484,-3.0486,-3.0543,-3.048,-3.0482,-3.0484,-3.0485,-3.0658,-3.0661,0,0,0,0,0,0,-3.047,-3.0472,-3.0523,-3.0523,-3.0472,-3.0478,-3.0478,-3.0494,-3.0489,-3.0486,-3.0471,-3.0466,-3.048,-3.0483,-3.0486,-3.057,-3.0483,-3.0485,-3.0487,-3.0655,-3.0659,-3.0662,0,0,0,0,0,0,-3.0469,-3.0476,-3.0522,-3.0496,-3.0501,-3.0482,-3.05,-3.0495,-3.0503,-3.0489,-3.0485,-3.0484,-3.0478,-3.0482,-3.0529,-3.0569,-3.0486,-3.0489,-3.0652,-3.0656,-3.066,-3.0737,0,0,0,0,0,0,-3.0467,-3.0476,-3.0503,-3.0497,-3.0502,-3.0565,-3.0502,-3.0497,-3.0509,-3.0502,-3.05,-3.0497,-3.0476,-3.0525,-3.0531,-3.0571,-3.0491,-3.0648,-3.0654,-3.0659,-3.0731,-3.0744,-3.0755,0,0,0,0,0,-3.0465,-3.0524,-3.0504,-3.0511,-3.0536,-3.0568,-3.0571,-3.0546,-3.0512,-3.0539,-3.053,-3.0497,-3.0563,-3.053,-3.0537,-3.0579,-3.0645,-3.0652,-3.0658,-3.0726,-3.0741,-3.0755,0,0,0,0,0,0,-3.0535,-3.0523,-3.0501,-3.056,-3.0565,-3.0557,-3.059,-3.0563,-3.0578,-3.0571,-3.054,-3.054,-3.0592,-3.059,-3.0553,-3.0647,-3.0598,-3.0607,-3.0647,-3.0662,-3.0673,-3.0673,-3.0494,0,0,0,0,0,-3.0557,-3.0584,-3.0572,-3.0625,-3.0629,-3.0609,-3.0622,-3.0603,-3.0607,-3.0609,-3.0603,-3.0609,-3.0631,-3.0646,-3.0665,-3.073,-3.0729,-3.0762,-3.0774,-3.0784,-3.0791,-3.0826,-3.0841,-3.0683,-3.0683,-3.0683,0,0,-3.0603,-3.06,-3.0619,-3.0639,-3.0641,-3.0669,-3.0612,-3.0644,-3.0665,-3.0614,-3.0658,-3.0654,-3.0658,-3.0714,-3.0738,-3.0713,-3.0834,-3.0792,-3.08,-3.0802,-3.0834,-3.0849,-3.0862,-3.0688,-3.0687,-3.0686,0,0,-3.0702,-3.0702,-3.0747,-3.075,-3.0754,-3.074,-3.0751,-3.0746,-3.0742,-3.0785,-3.0747,-3.0772,-3.081,-3.0815,-3.0822,-3.0923,-3.0893,-3.093,-3.0992,-3.1026,-3.1038,-3.1049,-3.1085,-3.1099,-3.0937,-3.0938,-3.0938,0,-3.0759,-3.0801,-3.0773,-3.0808,-3.0818,-3.0773,-3.0818,-3.0822,-3.0832,-3.084,-3.0812,-3.086,-3.0859,-3.0916,-3.0941,-3.0948,-3.0959,-3.093,-3.1038,-3.1049,-3.1059,-3.1093,-3.1107,-3.0942,-3.0941,-3.0941,-3.0941,0,-3.0871,-3.0901,-3.0936,-3.0947,-3.0961,-3.1001,-3.0979,-3.0996,-3.0975,-3.0965,-3.101,-3.1007,-3.1026,-3.1037,-3.1017,-3.1092,-3.1076,-3.1044,-3.0994,-3.1079,-3.1111,-3.1124,-3.0948,-3.0947,-3.0946,-3.0944,0,0,-3.1015,-3.101,-3.1024,-3.1028,-3.1029,-3.1051,-3.1089,-3.1107,-3.1122,-3.113,-3.1162,-3.1195,-3.1165,-3.1174,-3.1153,-3.1183,-3.1264,-3.1147,-3.1147,-3.117,-3.1346,-3.1372,-3.1387,-3.1244,-3.1246,-3.1248,-3.1346,0,-3.1113,-3.1177,-3.1153,-3.1219,-3.1247,-3.1204,-3.1236,-3.124,-3.1231,-3.1253,-3.1242,-3.1267,-3.1225,-3.123,-3.1258,-3.1248,-3.1299,-3.1241,-3.1273,-3.1274,-3.1274,-3.1404,-3.1431,-3.1523,-3.1358,-3.136,-3.1362,0,-3.1235,-3.1249,-3.1318,-3.1314,-3.1324,-3.1354,-3.1369,-3.139,-3.1393,-3.1385,-3.1394,-3.1367,-3.1404,-3.1354,-3.1404,-3.1365,-3.1376,-3.1374,-3.1377,-3.138,-3.1324,-3.1411,-3.1552,-3.1567,-3.1381,-3.138,-3.1378,0,-3.1335,-3.137,-3.1416,-3.1421,-3.1417,-3.1439,-3.1439,-3.1439,-3.1452,-3.1464,-3.1472,-3.1489,-3.1498,-3.1512,-3.149,-3.1455,-3.1544,-3.1491,-3.1538,-3.1539,-3.1559,-3.1559,-3.1706,-3.1565,-3.1565,-3.1565,-3.1565,0,-3.1446,-3.1491,-3.146,-3.1489,-3.1537,-3.1508,-3.1557,-3.1552,-3.1553,-3.1579,-3.1542,-3.1568,-3.1538,-3.1561,-3.1544,-3.1588,-3.1592,-3.1587,-3.1582,-3.1591,-3.1592,-3.1599,-3.1592,-3.1569,-3.1568,-3.1567,-3.1566,0,-3.1566,-3.1548,-3.1595,-3.1587,-3.1587,-3.1623,-3.1616,-3.1642,-3.163,-3.1664,-3.167,-3.1652,-3.1677,-3.1656,-3.1681,-3.1669,-3.1729,-3.1714,-3.1728,-3.1724,-3.1772,-3.1769,-3.193,-3.195,-3.1796,-3.1797,-3.1799,0,-3.1639,-3.1673,-3.1668,-3.1684,-3.1686,-3.1711,-3.1723,-3.1696,-3.171,-3.1716,-3.1742,-3.1764,-3.178,-3.1822,-3.181,-3.1829,-3.1815,-3.187,-3.1817,-3.1825,-3.1817,-3.1816,-3.1819,-3.1881,-3.1883,-3.1884,-3.1886,0,-3.1772,-3.1761,-3.178,-3.1797,-3.1813,-3.1824,-3.1833,-3.1848,-3.182,-3.1838,-3.1863,-3.1875,-3.19,-3.1922,-3.1937,-3.1936,-3.1907,-3.1902,-3.1914,-3.1924,-3.1931,-3.1929,-3.1758,-3.1899,-3.1898,-3.1897,-3.1896,-3.1895,-3.1871,-3.1899,-3.19,-3.1923,-3.1927,-3.1936,-3.196,-3.1951,-3.1971,-3.199,-3.1972,-3.2002,-3.2005,-3.2021,-3.2024,-3.2047,-3.2024,-3.2041,-3.2046,-3.2051,-3.2058,-3.1926,-3.2049,-3.2049,-3.2049,-3.2048,-3.2048,0,-3.2002,-3.2001,-3.2022,-3.2036,-3.2054,-3.2024,-3.2032,-3.2049,-3.2077,-3.2081,-3.2098,-3.2127,-3.2148,-3.2138,-3.2157,-3.2177,-3.2165,-3.2183,-3.2182,-3.2182,-3.2077,-3.2065,-3.2194,-3.2193,-3.2193,-3.2193,-3.2193,-3.2193,-3.2073,-3.2118,-3.2107,-3.2154,-3.2152,-3.2182,-3.2189,-3.2197,-3.22,-3.2235,-3.2252,-3.2245,-3.2244,-3.2262,-3.2281,-3.2277,-3.2286,-3.231,-3.2302,-3.2204,-3.219,-3.2176,-3.2165,-3.2312,-3.2312,-3.2406,-3.2406,-3.2407]},{"header":{"parameterUnit":"m.s-1","parameterCategory":1,"la1":30.2991,"la2":30.254,"lo1":-89.0895,"lo2":-89.0444,"dy":0.0017,"dx":0.0017,"nx":28,"ny":28,"refTime":"2024-04-21T09:00:00:Z","depth":0,"parameterNumber":3,"parameterNumberName":"V-component_of_WINDS"},"data":[0,0,0,0,0,0,0,0,0,0,0,0,0,0,0,0,0,0,0,0,0,0,0,0,0,0,0,0,0,0,0,0,0,0,0,0,0,0,0,0,0,0,0,0,0,0,0,0,0,0,0,0,0,0,0,0,0,0,-5.8048,-5.8049,0,-5.8093,-5.8094,-5.8094,-5.8044,-5.8042,-5.804,-5.8038,-5.8081,-5.8084,-5.8087,0,0,0,0,0,0,0,0,0,0,0,0,0,-5.7914,-5.7917,-5.8048,-5.8049,-5.8049,-5.8093,-5.8094,-5.8095,-5.8044,-5.8042,-5.8039,-5.8037,-5.808,-5.8083,-5.8087,0,0,0,0,0,0,0,0,0,0,0,0,0,-5.7967,-5.7918,-5.8048,-5.8029,-5.8028,-5.8093,-5.8094,-5.8095,-5.8045,-5.8042,-5.8039,-5.8036,-5.8079,-5.8083,-5.8087,-5.8172,0,0,-5.8101,-5.8103,0,0,0,0,0,0,0,0,-5.7964,-5.7972,-5.8032,-5.8031,-5.803,-5.806,-5.8062,-5.812,-5.8045,-5.8038,-5.8038,-5.8035,-5.8076,-5.808,-5.8095,-5.8174,-5.8175,-5.8101,-5.8104,-5.8106,-5.8107,0,0,0,0,0,0,0,-5.7961,-5.797,-5.8066,-5.8032,-5.8031,-5.8018,-5.8022,-5.8073,-5.8072,-5.8039,-5.8035,-5.8041,-5.8075,-5.8091,-5.8096,-5.8176,-5.8101,-5.8105,-5.8108,-5.8109,-5.8326,-5.8329,0,0,0,0,0,0,-5.7959,-5.7967,-5.8064,-5.8067,-5.7989,-5.8022,-5.8027,-5.8053,-5.8072,-5.8072,-5.8044,-5.8039,-5.8085,-5.8091,-5.8097,-5.8198,-5.8106,-5.811,-5.8112,-5.8323,-5.8327,-5.833,0,0,0,0,0,0,-5.7957,-5.7969,-5.8063,-5.8016,-5.8027,-5.8028,-5.8057,-5.8056,-5.8072,-5.8076,-5.8075,-5.8061,-5.8083,-5.8091,-5.8154,-5.8198,-5.8112,-5.8116,-5.8319,-5.8324,-5.8329,-5.8399,0,0,0,0,0,0,-5.7953,-5.7968,-5.8001,-5.8017,-5.803,-5.812,-5.806,-5.8058,-5.808,-5.8074,-5.8091,-5.8092,-5.8081,-5.8148,-5.8158,-5.8203,-5.8119,-5.8315,-5.8322,-5.8327,-5.8393,-5.8405,-5.8416,0,0,0,0,0,-5.7949,-5.8018,-5.8003,-5.8015,-5.8071,-5.8123,-5.8129,-5.8117,-5.8084,-5.8116,-5.8119,-5.8091,-5.8192,-5.8154,-5.8166,-5.8212,-5.8313,-5.832,-5.8327,-5.8387,-5.8403,-5.8416,0,0,0,0,0,0,-5.8005,-5.802,-5.8003,-5.808,-5.8101,-5.8114,-5.8155,-5.8134,-5.8164,-5.8157,-5.8139,-5.8144,-5.8211,-5.8218,-5.8176,-5.8295,-5.8246,-5.8256,-5.8288,-5.8303,-5.8315,-5.8312,-5.8123,0,0,0,0,0,-5.8027,-5.8068,-5.8078,-5.8145,-5.8157,-5.8154,-5.8176,-5.8165,-5.8185,-5.8193,-5.82,-5.822,-5.8256,-5.828,-5.8313,-5.8393,-5.8396,-5.8431,-5.8443,-5.8452,-5.8461,-5.8504,-5.852,-5.8354,-5.8353,-5.8353,0,0,-5.8071,-5.8084,-5.8112,-5.8157,-5.8172,-5.8214,-5.8162,-5.8209,-5.824,-5.82,-5.826,-5.8266,-5.8287,-5.8359,-5.8391,-5.8367,-5.8508,-5.8461,-5.8469,-5.8472,-5.8513,-5.8529,-5.8543,-5.8358,-5.8357,-5.8357,0,0,-5.8175,-5.8189,-5.8247,-5.8263,-5.8286,-5.8284,-5.8298,-5.8315,-5.8318,-5.8378,-5.8349,-5.8385,-5.8448,-5.8464,-5.848,-5.859,-5.8566,-5.8601,-5.8664,-5.8706,-5.8719,-5.8731,-5.877,-5.8785,-5.861,-5.861,-5.861,0,-5.8227,-5.8292,-5.8278,-5.8329,-5.8349,-5.8316,-5.8374,-5.839,-5.8422,-5.8437,-5.8409,-5.8487,-5.8499,-5.8574,-5.8602,-5.8616,-5.8631,-5.86,-5.8719,-5.873,-5.874,-5.8778,-5.8793,-5.8614,-5.8614,-5.8613,-5.8613,0,-5.8355,-5.84,-5.8443,-5.8478,-5.8503,-5.8557,-5.8551,-5.8578,-5.8565,-5.8565,-5.8627,-5.864,-5.8676,-5.8693,-5.8679,-5.8767,-5.8751,-5.8721,-5.8672,-5.8761,-5.8796,-5.881,-5.862,-5.8619,-5.8618,-5.8617,0,0,-5.8495,-5.8522,-5.8539,-5.8554,-5.8578,-5.8612,-5.8663,-5.87,-5.8723,-5.8747,-5.8789,-5.8843,-5.8816,-5.8835,-5.8823,-5.886,-5.8948,-5.8826,-5.8826,-5.8849,-5.9045,-5.9068,-5.9085,-5.8931,-5.8934,-5.8936,-5.9043,0,-5.86,-5.8691,-5.8681,-5.8768,-5.881,-5.8779,-5.8824,-5.8843,-5.8845,-5.8879,-5.888,-5.8919,-5.888,-5.8892,-5.8927,-5.893,-5.8987,-5.8921,-5.897,-5.8972,-5.8967,-5.9103,-5.9127,-5.9227,-5.9057,-5.9059,-5.9061,0,-5.8734,-5.8764,-5.8856,-5.8874,-5.8891,-5.8932,-5.8965,-5.8998,-5.9018,-5.9017,-5.9039,-5.902,-5.9071,-5.9021,-5.9091,-5.9047,-5.9066,-5.907,-5.9074,-5.9078,-5.9022,-5.9111,-5.9259,-5.9275,-5.9082,-5.908,-5.9079,0,-5.8828,-5.8891,-5.8955,-5.8969,-5.8991,-5.9021,-5.9031,-5.9049,-5.9071,-5.9099,-5.9114,-5.9147,-5.9165,-5.919,-5.9181,-5.9145,-5.9253,-5.9202,-5.9253,-5.9254,-5.9278,-5.9276,-5.9431,-5.9289,-5.9289,-5.9289,-5.9288,0,-5.8946,-5.9004,-5.8998,-5.9037,-5.91,-5.9087,-5.9149,-5.9156,-5.9172,-5.9211,-5.9185,-5.9222,-5.9208,-5.9243,-5.9236,-5.9295,-5.9303,-5.9303,-5.9301,-5.9306,-5.9306,-5.9319,-5.9312,-5.9293,-5.9292,-5.9291,-5.929,0,-5.9062,-5.9061,-5.9128,-5.9144,-5.9149,-5.9195,-5.9208,-5.9244,-5.9244,-5.9294,-5.9305,-5.9304,-5.9345,-5.9339,-5.9383,-5.9378,-5.9453,-5.9441,-5.9446,-5.9444,-5.9496,-5.9492,-5.9665,-5.9687,-5.953,-5.9532,-5.9533,0,-5.9138,-5.9182,-5.9204,-5.9229,-5.9242,-5.9282,-5.9305,-5.9294,-5.9319,-5.9346,-5.9379,-5.9418,-5.9448,-5.9515,-5.9518,-5.9552,-5.9541,-5.9599,-5.9546,-5.955,-5.9543,-5.9541,-5.9545,-5.961,-5.9612,-5.9613,-5.9615,0,-5.9274,-5.9271,-5.9306,-5.9342,-5.9371,-5.9398,-5.9423,-5.9444,-5.9435,-5.9464,-5.9507,-5.953,-5.9577,-5.9615,-5.9647,-5.9656,-5.9634,-5.9632,-5.9645,-5.9651,-5.9653,-5.9654,-5.9476,-5.9628,-5.9626,-5.9625,-5.9625,-5.9624,-5.9372,-5.941,-5.9432,-5.9472,-5.949,-5.9513,-5.9548,-5.9553,-5.9589,-5.9627,-5.9617,-5.9665,-5.9684,-5.9725,-5.9738,-5.9774,-5.9753,-5.9772,-5.9778,-5.9783,-5.979,-5.9647,-5.978,-5.978,-5.9779,-5.9779,-5.9779,0,-5.9507,-5.9519,-5.9557,-5.9593,-5.9625,-5.9602,-5.9628,-5.9656,-5.9699,-5.9719,-5.975,-5.9798,-5.9836,-5.9842,-5.9878,-5.9906,-5.9896,-5.9915,-5.9913,-5.9916,-5.9807,-5.9792,-5.9922,-5.9922,-5.9922,-5.9922,-5.9922,-5.9922,-5.9581,-5.9644,-5.9644,-5.9715,-5.9726,-5.9774,-5.9791,-5.9812,-5.9829,-5.9885,-5.9916,-5.9921,-5.9935,-5.9971,-6.0005,-6.0005,-6.002,-6.0043,-6.004,-5.9938,-5.9923,-5.991,-5.9896,-6.0046,-6.0046,-6.0146,-6.0147,-6.0148]}]]